Preview of NWS' New Version of Forecast
This preview is not operational and should not be used for support decisions.

Regional Weather Roundup (RWR)

Issued by Gray - Portland, ME (GYX)

                            
000
ASUS41 KGYX 251310
RWRGYX
WEATHER ROUNDUP FOR MAINE AND NEW HAMPSHIRE
NATIONAL WEATHER SERVICE GRAY ME
900 AM EDT SAT MAY 25 2019

MEZ002-005-006-010-012-015-018-020-021-024-026-027-029-251400-
MAINE
  
CITY           SKY/WX    TMP DP  RH WIND       PRES   REMARKS
PORTLAND       PTSUNNY   63  48  58 NW5       30.18R                  
SANFORD        FAIR      64  47  53 N8        30.19R                  
BAR HARBOR     FAIR      61  46  57 N8        30.14S                  
WISCASSET      FAIR      63  46  54 VRB5      30.17S                  
ROCKLAND       FAIR      63  47  55 NE7       30.15R                  
FRYEBURG       FAIR      63  45  51 W3        30.18S                  
LEWISTONAUBURN FAIR      62  48  60 VRB5      30.18R                  
AUGUSTA        FAIR      62  47  57 N3        30.17R                  
WATERVILLE     FAIR      61  48  62 N8        30.14S                  
BANGOR         FAIR      61  47  59 NW3       30.15S                  
GREENVILLE       N/A     57  44  62 NW10      30.14R                  
MILLINOCKET    FAIR      63  44  50 CALM      30.14F                  
HOULTON        FAIR      60  44  55 N6        30.11S                  
PRESQUE ISLE   FAIR      59  43  55 CALM      30.13S                  
FRENCHVILLE    FAIR      64  39  39 NW6       30.11S                  
CARIBOU        FAIR      61  42  49 VRB3      30.11S                  
$$

NHZ002-005-008-009-011-012-014-251400-
NEW HAMPSHIRE
  
CITY           SKY/WX    TMP DP  RH WIND       PRES   REMARKS
PORTSMOUTH     PTSUNNY   63  49  61 NW5       30.17S                  
ROCHESTER      FAIR      63  47  55 NW5       30.18S                  
NASHUA         FAIR      62  48  60 CALM      30.20F                  
MANCHESTER     FAIR      62  48  60 CALM      30.18F                  
CONCORD        FAIR      59  48  67 CALM      30.20F                  
LACONIA        FAIR      59  48  67 SW6       30.20F                  
PLYMOUTH       FAIR      55  49  80 CALM      30.20F                  
BERLIN         FAIR      54  46  74 CALM      30.20F                  
WHITEFIELD     FAIR      52  46  80 CALM      30.20F                  
JAFFREY        FAIR      60  47  61 SW6       30.22S                  
KEENE          FAIR      52  49  89 CALM      30.23S                  
LEBANON        CLOUDY    48  45  89 CALM      30.21S FOG              
MT WASHINGTON  MOSUNNY   41  34  75 S3          N/A                   
$$

VTZ005-007-008-251400-
VERMONT
  
CITY           SKY/WX    TMP DP  RH WIND       PRES   REMARKS
ST JOHNSBURY     N/A     45  45 100 MISG      30.21S                  
MONTPELIER     FOG       47  46  97 E3        30.24S VSB 1/2          
BURLINGTON     FAIR      60  50  69 S7        30.18F                  
$$

MAZ007-012-024-CTZ003-RIZ002-NYZ038-NYZ072-251400-
SOUTHERN NEW ENGLAND AND NY
  
CITY           SKY/WX    TMP DP  RH WIND       PRES   REMARKS
BOSTON         FAIR      65  44  46 NW10      30.19S                  
WORCESTER      FAIR      61  47  59 VRB6      30.21F                  
NANTUCKET      FAIR      61  47  59 NW15      30.19S                  
PROVIDENCE     FAIR      63  50  62 W8        30.21F                  
HARTFORD       FAIR      62  49  62 CALM      30.22F                  
ALBANY         PTSUNNY   59  51  75 CALM      30.19F                  
NEW YORK CITY  PTSUNNY   63  49  60 S6        30.24R                  
$$

ANZ081-ANZ082-ANZ150-NHZ014-MEZ023>029-251400-
COASTAL MARINE OBSERVATIONS
  
STATION/POSITION TIME  TEMP    WIND        PRES    WAVE
                       AIR SEA DIR/SP/G            HT/PER
                 (UTC) (F)     (DEG/KT/KT) (MB)    (FT/S)
ISLE OF SHOALS   1200   52     290/  8/  8 1021.5R
JEFFREYS LEDGE   1238      48                N/A     3/ 8
GEORGES BANK BUO 1250   47 44  350/ 16/ 19 1021.1R   9/10
$$

.............KEY..............
   WCI - WIND CHILL
   TC  - TEMPERATURE IN CELSIUS
   VSB - VISIBILITY IN MILES
   HX  - HEAT INDEX
   FAIR- INDICATES FEW OR NO CLOUDS BELOW 12,000 FT, WITH NO 
         SIGNIFICANT WEATHER AND/OR OBSTRUCTIONS TO VISIBILITY.